User: anonymous   Login
Location: ActonStarParty
(42.4766°N, 71.4538°W)
Time: 03:32:48
(UTC-05:00)
Language:

Cosmos 1300 - Orbit

View from above orbital plane
View from above orbital plane
View from above satellite
View from above satellite

Ground track
Ground track

The orbit data is extracted from the following two-line orbital elements,

1 12785U 81082A   15062.56375780  .00006835  00000-0  37904-3 0  9995
2 12785 082.5072 178.9154 0000589 184.8681 303.3127 15.13625547825128
Epoch (UTC): 03 March 2015 13:31:48
Eccentricity: 0.0000589
inclination: 82.5072°
perigee height: 525 km
apogee height: 525 km
right ascension of ascending node: 178.9154°
argument of perigee: 184.8681°
revolutions per day: 15.13625547
mean anomaly at epoch: 303.3127°
orbit number at epoch: 82512

The dashed part of the orbit path shows where the satellite is in the earth's shadow,  

DLR